User: anonymous   Login
Location: Unspecified
(0.0000°N, 0.0000°E)
Time: 01:00:07
(UTC+01:00)
Language:

Centaur D-1AR AC-41 - Orbit

View from above orbital plane
View from above orbital plane
View from above satellite
View from above satellite

Ground track
Ground track

The orbit data is extracted from the following two-line orbital elements,

1 10976U 78068B   14331.98444316  .00000008  00000-0  16949-2 0  5279
2 10976 021.2620 165.0594 7170943 045.7223 017.6023 02.22295250295512
Epoch (UTC): 27 November 2014 23:37:35
Eccentricity: 0.7170943
inclination: 21.2620°
perigee height: 638 km
apogee height: 36205 km
right ascension of ascending node: 165.0594°
argument of perigee: 45.7223°
revolutions per day: 2.22295250
mean anomaly at epoch: 17.6023°
orbit number at epoch: 29551

The dashed part of the orbit path shows where the satellite is in the earth's shadow,  

DLR